This is the latest recevied weather packets stored in our database for station/object AD8IZ-13. If no packets are shown the sender has not sent any weather packets the latest 1 day(s).
| Time | Temp. | Humidity | Pressure | Rain* | Wind** | Luminosity | Snow |
|---|---|---|---|---|---|---|---|
| 1778081121 | 11.67° C | 75% | 1011.8 hPa | 0 mm | - | 514 W/m² | - |
| 1778080522 | 11.11° C | 77% | 1011.7 hPa | 0 mm | - | 545 W/m² | - |
| 1778079318 | 10.56° C | 79% | 1011.7 hPa | 0 mm | - | 450 W/m² | - |
| 1778078719 | 10.56° C | 79% | 1011.7 hPa | 0 mm | - | 396 W/m² | - |
| 1778078122 | 10° C | 81% | 1011.7 hPa | 0 mm | - | 351 W/m² | - |
| 1778076320 | 9.44° C | 89% | 1011.2 hPa | 0 mm | - | 318 W/m² | - |
| 1778073922 | 8.89° C | 94% | 1010.9 hPa | 0 mm | - | 232 W/m² | - |
| 1778072723 | 8.33° C | 96% | 1010.8 hPa | 0 mm | - | 160 W/m² | - |
| 1778070924 | 8.89° C | 98% | 1010.1 hPa | 0 mm | - | 96 W/m² | - |
| 1778069726 | 8.33° C | 98% | 1010.2 hPa | 0 mm | - | 78 W/m² | - |
| 1778066725 | 8.33° C | 98% | 1009.4 hPa | 0 mm | - | 10 W/m² | - |
| 1778066126 | 7.78° C | 98% | 1009 hPa | 0 mm | - | 7 W/m² | - |
| 1778064925 | 8.33° C | 98% | 1009.2 hPa | 0 mm | - | 3 W/m² | - |
| 1778064327 | 8.33° C | 98% | 1009.2 hPa | 0 mm | - | 1 W/m² | - |
| 1778063726 | 8.33° C | 98% | 1009 hPa | 0 mm | - | 1 W/m² | - |
| 1778063126 | 8.33° C | 98% | 1008.6 hPa | 0 mm | - | 0 W/m² | - |
| 1778061926 | 8.33° C | 98% | 1007.9 hPa | 0 mm | - | 0 W/m² | - |
| 1778060126 | 8.33° C | 98% | 1008 hPa | 1.02 mm | - | 0 W/m² | - |
| 1778059518 | 8.33° C | 98% | 1008.2 hPa | 1.52 mm | - | 0 W/m² | - |
| 1778058919 | 8.33° C | 98% | 1007.9 hPa | 2.29 mm | - | 0 W/m² | - |
| 1778058327 | 8.33° C | 98% | 1007.7 hPa | 3.05 mm | - | 0 W/m² | - |
| 1778057124 | 8.33° C | 98% | 1008.2 hPa | 2.54 mm | - | 0 W/m² | - |
| 1778056518 | 8.89° C | 98% | 1007.8 hPa | 2.29 mm | - | 0 W/m² | - |
| 1778055329 | 8.89° C | 98% | 1007.7 hPa | 1.27 mm | - | 0 W/m² | - |
| 1778054720 | 8.89° C | 98% | 1007.5 hPa | 0.51 mm | - | 0 W/m² | - |
* Rain latest hour (hover to see other rain measurements)
** Current wind speed in m/s (hover to see current wind gust speed)